Regional Weather Roundup
Issued by NWS Grand Forks, ND

Home | Current Version | Previous Version | Text Only | Print | Product List | Glossary Off
Versions: 1 2 3 4 5 6 7 8 9 10 11 12 13 14 15 16 17 18 19 20 21 22 23 24 25 26 27 28 29 30 31 32 33 34 35 36 37 38 39 40 41 42 43 44 45 46 47 48 49 50

000
ASUS43 KFGF 241431
RWRFGF
PRAIRIE TO PINES  WEATHER ROUNDUP
NATIONAL WEATHER SERVICE EASTERN NORTH DAKOTA/GRAND FORKS ND
900 AM CDT FRI OCT 24 2014

 **SATELLITE DATA USED TO AUGMENT SKY COVER AT AUTOMATED STATIONS**
 *****  WEATHER ACROSS EASTERN NORTH DAKOTA  *****

CITY           SKY/WX    TMP DP  RH WIND       PRES   REMARKS
GRAND FORKS    PTCLDY    46  37  71 SW8       29.75S
GRAND FRKS AFB PTCLDY    50  39  65 W8        29.76R
GRAND FRKS NWS   N/A     48 N/A N/A SW6         N/A
DEVILS LAKE    CLEAR     50  36  57 W8        29.77S
FARGO          PTCLDY    46  41  82 S9        29.81R
WAHPETON ARPT  PTSUNNY   41  37  87 S5        29.83R
$$

 ***** WEATHER ACROSS CENTRAL AND WESTERN NORTH DAKOTA  *****

CITY           SKY/WX    TMP DP  RH WIND       PRES   REMARKS
BISMARCK       CLOUDY    37  32  82 CALM      29.87R
MINOT          CLOUDY    54  36  50 SW9       29.79R
JAMESTOWN      MOCLDY    44  36  73 W3        29.82R
MINOT AFB      CLOUDY    53  38  57 W16       29.78R
GARRISON         N/A     41  37  86 S3        29.83R
WILLISTON      MOCLDY    45  37  73 SW8       29.86R
DICKINSON      PTCLDY    41  33  73 W9        29.88R
HETTINGER      PTCLDY    41  30  65 W7        29.93R
$$

 *****  OTHER AIRPORT OBSERVATIONS IN OUR AREA  *****

CITY           SKY/WX    TMP DP  RH WIND       PRES   REMARKS
WALHALLA         N/A     54  39  58 W12G21    29.70S
GRAFTON AIRPOR FAIR      50  39  66 SW12      29.74R
VALLEY CITY AR FAIR      41  41 100 CALM      29.82R
CANDO          FAIR      48  39  71 W14       29.78R
CAVALIER APRT  FAIR      48  39  71 S6        29.71S
GWINNER        SUNNY     46  46 100 SW14      29.84R
ROLLA          FAIR      46  36  66 SW10      29.75S
 ***** THE ABOVE OBSERVATIONS ARE NON NWS ARE NOT QUALITY
       CONTROLLED AND MAY MIS-REPORT RAIN FOR SNOW...
$$

  *****  WEATHER ACROSS NORTHERN MINNESOTA  *****

CITY           SKY/WX    TMP DP  RH WIND       PRES   REMARKS
FLAG ISLAND    CLOUDY    48  43  81 S7        29.69S
WARROAD        CLOUDY    50  43  76 SW8       29.72S
ROSEAU         CLOUDY    46  41  81 S6        29.72S
HALLOCK        PTCLDY    45  37  76 S8        29.72R
THF RVR FALLS  PTCLDY    48  41  76 S10       29.77R
BAUDETTE       CLOUDY    51  42  71 SW6       29.73S
WASKISH        CLOUDY    54  43  66 CALM      29.76S
CROOKSTON      PTCLDY    46  41  81 S8        29.78R
STEPHEN NDAWN    N/A     45  37  76 S8          N/A
GREENBUSH NDAW   N/A     46  39  76 S9          N/A
$$
  *****  WEATHER ACROSS CENTRAL AND WEST MINNESOTA  *****

CITY           SKY/WX    TMP DP  RH WIND       PRES   REMARKS
FOSSTON        CLEAR     48  43  81 S10       29.79S
BEMIDJI        PTCLDY    51  42  73 SW6       29.79S
PARK RAPIDS    PTCLDY    44  42  93 S6        29.82R
ELBOW LAKE     FAIR      45  44  95 S6        29.84R
WADENA         SUNNY     46  43  87 CALM      29.82S
DETROIT LAKES  CLEAR     48  45  87 S5        29.81S
MOORHEAD       PTCLDY    45  45 100 S7        29.82R
FERGUS FALLS   MOCLDY    46  45  93 S7        29.84S
MORRIS MN      PTSUNNY   45  43  93 SE3       29.83S
STAPLES        MOSUNNY   46  43  87 S5        29.83S FOG
$$
  *****  WEATHER ELSEWHERE ACROSS MINNESOTA  *****

CITY           SKY/WX    TMP DP  RH WIND       PRES   REMARKS
DULUTH         PTSUNNY   49  45  86 S9        29.86F
INTRNTL FALLS  CLOUDY    52  43  71 VRB5      29.74F
ELY            CLOUDY    52  45  76 SW8       29.82S
CLOQUET        MOSUNNY   48  46  93 S5        29.86F FOG
WHEATON        MOCLDY    41  39  93 CALM      29.86R
BRAINERD       MOSUNNY   48  42  80 S10       29.84F
HIBBING        CLOUDY    43  40  89 S3        29.84S
ALEXANDRIA     PTSUNNY   46  43  89 SE3       29.85R
SAINT CLOUD    MOSUNNY   50  43  77 SE6       29.86S
MINNEAPOLIS    PTSUNNY   50  46  86 SE7       29.89S
$$

  *****  WEATHER ACROSS SOUTH DAKOTA  *****

CITY           SKY/WX    TMP DP  RH WIND       PRES   REMARKS
SIOUX FALLS    CLOUDY    50  49  96 W5        29.88R FOG
BROOKINGS      NOT AVBL
WATERTOWN      CLOUDY    42  42 100 CALM      29.87R FOG
HURON          CLOUDY    40  37  89 CALM      29.88R
SISSETON         N/A     45  43  93 S5        29.83R
ABERDEEN       MOCLDY    37  35  92 S3        29.86R
MITCHELL       CLOUDY    44  41  89 W3        29.89R
PIERRE         CLOUDY    41  34  76 W5        29.90R
MOBRIDGE       CLOUDY    42  38  85 CALM      29.87R
RAPID CITY     CLOUDY    50  33  52 N12       29.95R
$$

  *****  SOME WEATHER IN NEARBY STATES *****

CITY           SKY/WX    TMP DP  RH WIND       PRES   REMARKS
GLASGOW MT     MOCLDY    48  39  71 SW8       29.91R
GREAT FALLS MT MOCLDY    48  33  56 SW10      30.02R
CHEYENNE WY    CLOUDY    58  26  29 W7        30.20R
SCOTTSBLUFF NE CLOUDY    51  37  58 NW7       30.06R
OMAHA NE       CLOUDY    60  57  89 S14       29.93S FOG
DES MOINES IA  CLOUDY    60  59  96 S10       29.97F FOG
DAVENPORT IA   FOG       53  52  96 SE7       30.07R VSB 1/4
CHICAGO IL     MOSUNNY   54  47  77 CALM      30.06S
EAU CLAIRE WI  CLOUDY    50  48  93 SE7       29.97R
LA CROSSE WI   FOG       51  50  96 S10       29.99R VSB 1
$$

  *****  SOME NATIONAL WEATHER *****

CITY           SKY/WX    TMP DP  RH WIND       PRES   REMARKS
LA GUARDIA NY  CLOUDY    54  43  66 NW14      29.82S
RALEIGH NC     PTSUNNY   53  42  66 N3        30.07R
ATLANTA GA     PTSUNNY   57  47  69 NW6       30.08R
NEW ORLEANS LA MOSUNNY   66  54  65 VRB3      30.12R
OKLAHOMA CITY  MOSUNNY   59  55  87 S12       30.11R
ALBUQUERQUE NM PTCLDY    51  36  56 W5        30.31S
SALT LAKE CITY PTCLDY    44  39  82 CALM      30.15R
LOS ANGELES CA PTCLDY    61  58  90 CALM      29.97R
BOISE ID       CLOUDY    51  49  92 CALM      30.09R
SEATTLE WA     CLOUDY    49  43  80 SE5       30.03S
$$

*** WEATHER ACROSS MANITOBA...SASKATCHEWAN AND ONTARIO ***
                ***ONTARIO***

CITY           SKY/WX    TMP DP  RH WIND       PRES   REMARKS
GERALDTON      FOG      N/A N/A N/A S14         N/A  VSB 1
THUNDER BAY    CLOUDY    50  48  93 S3        29.85F
SIOUX LOOKOUT  MOSUNNY   48  45  87 S6        29.72F
TORONTO        MOSUNNY   45  37  76 N8        30.05S
BIG TROUT LK   CLOUDY    46  45  93 S3        29.62F
PICKLE LAKE    PTSUNNY   46  43  87 S8        29.68F
DRYDEN         MOCLDY    48  41  76 S9        29.71
KENORA         MOCLDY    48  41  76 S8        29.69F
$$
                *** MANITOBA***

CITY           SKY/WX    TMP DP  RH WIND       PRES   REMARKS
BRANDON        MOCLDY    45  39  81 W9        29.68S
DAUPHIN        CLOUDY    52  43  71 W12       29.59R
ISLAND LAKE    MOCLDY    46  46 100 SE5       29.54  FOG
PILOT MOUND      N/A     45  36  70 S8          N/A
THE PAS        CLOUDY    41  41 100 CALM      29.44F
THOMPSON       LGT RAIN  39  37  93 E6        29.47  VSB 5/8
WINNIPEG       MOCLDY    50  37  62 S12       29.67R
LYNN LAKE      CLOUDY    36  36 100 S5        29.41F FOG
CHURCHILL      LGT RAIN  37  37 100 E18G30    29.55S FOG
GILLAM         CLOUDY    39  39 100 S6        29.52F
$$
                ***SASKATCHEWAN***

CITY           SKY/WX    TMP DP  RH WIND       PRES   REMARKS
ESTEVAN        CLOUDY    52  39  62 SW16      29.78R
KINDERSLEY     PTCLDY    36  28  75 W10       29.77R
LLOYDMINSTER   MOCLDY    39  32  75 W23G35    29.68R
PRINCE ALBERT  MOCLDY    43  34  70 W14       29.57R
REGINA         MOCLDY    46  37  71 SW15      29.70R
YORKTON        CLEAR     48  41  76 SW13      29.60S
N. BATTLEFORD  MOCLDY    41  34  75 W16       29.69R
LA RONGE       CLOUDY    41  36  81 W10G18    29.46R
SASKATOON      MOCLDY    43  34  70 NW18G29   29.67R
SWIFT CURRENT  CLEAR     43  32  65 W20G30    29.78R
$$
NOTE: THESE ARE AUTOMATED STATIONS WITH LIMITED QUALITY CONTROL
      "FAIR" INDICATES FEW OR NO CLOUDS BELOW 12,000 FEET WITH NO
      SIGNIFICANT WEATHER AND/OR OBSTRUCTIONS TO VISIBILITY.
      SKY/WX - SKY CONDITION AND SIGNIFICANT WEATHER.
      TMP - AIR TEMPERATURE.    DP   - DEWPOINT TEMPERATURE.
      RH  - RELATIVE HUMIDITY.  PRES - PRESSURE.
      HX  - HEAT INDEX.         WCI  - WIND CHILL INDEX.
$



USA.gov is the U.S. government's official web portal to all federal, state and local government web resources and services.